[[{"header":{"parameterUnit":"m.s-1","parameterCategory":1,"la1":30.2991,"la2":30.254,"lo1":-89.0895,"lo2":-89.0444,"dy":0.0017,"dx":0.0017,"nx":28,"ny":28,"refTime":"2024-12-21T03:00:00:Z","depth":0,"parameterNumber":2,"parameterNumberName":"U-component_of_WINDS"},"data":[0,0,0,0,0,0,0,0,0,0,0,0,0,0,0,0,0,0,0,0,0,0,0,0,0,0,0,0,0,0,0,0,0,0,0,0,0,0,0,0,0,0,0,0,0,0,0,0,0,0,0,0,0,0,0,0,0,0,3.4684,3.4685,0,3.4771,3.4772,3.4773,3.4772,3.4771,3.477,3.4769,3.4859,3.4863,3.4866,0,0,0,0,0,0,0,0,0,0,0,0,0,3.4521,3.4524,3.4684,3.4685,3.4686,3.4771,3.4772,3.4774,3.4773,3.4771,3.477,3.4769,3.4858,3.4862,3.4866,0,0,0,0,0,0,0,0,0,0,0,0,0,3.4598,3.4525,3.4684,3.4696,3.4698,3.4771,3.4772,3.4774,3.4773,3.4771,3.4769,3.4768,3.4857,3.4862,3.4867,3.4934,0,0,3.4883,3.4885,0,0,0,0,0,0,0,0,3.4594,3.4604,3.4693,3.4695,3.4698,3.4759,3.4748,3.4828,3.4773,3.4744,3.4769,3.4767,3.4827,3.4835,3.4855,3.4938,3.4942,3.4883,3.4887,3.4889,3.489,0,0,0,0,0,0,0,3.4589,3.4601,3.4719,3.4694,3.4697,3.4699,3.4708,3.4763,3.4795,3.4747,3.4747,3.4757,3.4828,3.485,3.4857,3.4943,3.4883,3.4888,3.4891,3.4893,3.5091,3.5093,0,0,0,0,0,0,3.458,3.4596,3.4716,3.4721,3.464,3.4703,3.4713,3.4741,3.4794,3.48,3.4759,3.4757,3.4842,3.4851,3.486,3.4946,3.4889,3.4894,3.4897,3.5089,3.5091,3.5094,0,0,0,0,0,0,3.4577,3.4591,3.4712,3.4659,3.4674,3.4707,3.4739,3.4744,3.4766,3.4803,3.4809,3.4775,3.4841,3.4853,3.4917,3.4949,3.4896,3.4901,3.5086,3.509,3.5093,3.5114,0,0,0,0,0,0,3.4572,3.459,3.4614,3.4659,3.4677,3.4766,3.4741,3.4747,3.4774,3.4773,3.482,3.4826,3.4841,3.4909,3.4922,3.4955,3.4905,3.5084,3.5088,3.5092,3.5111,3.5118,3.5123,0,0,0,0,0,3.4566,3.4616,3.4615,3.463,3.4708,3.4767,3.4778,3.4794,3.4777,3.4803,3.4828,3.4824,3.4943,3.4915,3.493,3.4965,3.5082,3.5087,3.5091,3.5108,3.5116,3.5123,0,0,0,0,0,0,3.4573,3.4622,3.4622,3.4687,3.4723,3.4767,3.48,3.4801,3.4843,3.484,3.4858,3.4869,3.4933,3.4955,3.4924,3.5035,3.5011,3.5018,3.5018,3.5026,3.5033,3.5026,3.4909,0,0,0,0,0,3.4582,3.4625,3.4666,3.472,3.4738,3.4766,3.4792,3.4802,3.484,3.4855,3.4885,3.4923,3.4969,3.4999,3.5043,3.5114,3.5126,3.5146,3.5152,3.5157,3.5164,3.5208,3.5218,3.5109,3.5109,3.5109,0,0,3.4601,3.4633,3.4659,3.4722,3.4751,3.4797,3.4779,3.4827,3.4862,3.4863,3.4925,3.4949,3.4993,3.5061,3.5093,3.5082,3.5197,3.5163,3.5167,3.5171,3.5213,3.5224,3.5233,3.5113,3.5112,3.5112,0,0,3.4659,3.4687,3.4737,3.4767,3.4812,3.4831,3.4843,3.4888,3.4904,3.4967,3.497,3.5013,3.5091,3.5123,3.515,3.5226,3.5226,3.524,3.5274,3.5316,3.5324,3.5332,3.5362,3.5372,3.5247,3.5247,3.5247,0,3.4677,3.4746,3.4762,3.4812,3.4841,3.4845,3.4898,3.4926,3.4983,3.5004,3.4991,3.5092,3.5122,3.52,3.5219,3.524,3.5257,3.5235,3.5322,3.533,3.5337,3.5366,3.5377,3.5248,3.5248,3.5248,3.5248,0,3.4768,3.4816,3.4851,3.4907,3.494,3.4991,3.5017,3.5049,3.5057,3.5078,3.5145,3.5181,3.5235,3.5254,3.5261,3.5335,3.5327,3.5317,3.5293,3.5349,3.5376,3.5387,3.5251,3.525,3.525,3.5249,0,0,3.483,3.4898,3.4911,3.4938,3.499,3.5028,3.5081,3.5134,3.5163,3.5203,3.5249,3.5318,3.5311,3.5341,3.5353,3.539,3.5452,3.5376,3.5378,3.5391,3.554,3.5548,3.556,3.5452,3.5454,3.5456,3.5537,0,3.4896,3.4989,3.5007,3.5089,3.5136,3.5142,3.5189,3.5227,3.5249,3.5293,3.5318,3.5367,3.5353,3.5372,3.5408,3.5436,3.5482,3.5431,3.5498,3.55,3.5488,3.5574,3.5581,3.5656,3.5547,3.5549,3.5551,0,3.4984,3.5029,3.5115,3.5165,3.5185,3.5226,3.5279,3.532,3.5365,3.5379,3.5416,3.5424,3.5482,3.5455,3.5537,3.5501,3.553,3.5549,3.5552,3.556,3.5529,3.5586,3.5679,3.5691,3.5567,3.5566,3.5565,0,3.5025,3.5106,3.5169,3.5192,3.5251,3.5281,3.5307,3.535,3.5382,3.5428,3.545,3.5502,3.5531,3.5573,3.5597,3.5574,3.5678,3.5652,3.5693,3.5693,3.5715,3.5713,3.5816,3.5731,3.573,3.573,3.573,0,3.5097,3.5151,3.5189,3.5228,3.5289,3.5311,3.5372,3.5398,3.5437,3.5483,3.5491,3.5534,3.5562,3.561,3.5629,3.5696,3.5708,3.5723,3.5728,3.5723,3.5722,3.5743,3.5739,3.5733,3.5733,3.5732,3.5731,0,3.5152,3.518,3.525,3.5301,3.5316,3.5359,3.5403,3.5443,3.5467,3.5525,3.554,3.5578,3.5635,3.5663,3.5733,3.5747,3.5823,3.5823,3.5808,3.581,3.5851,3.5847,3.5972,3.5991,3.5891,3.5892,3.5893,0,3.5197,3.5239,3.5296,3.5327,3.5354,3.5405,3.5438,3.5463,3.5498,3.5555,3.5589,3.5646,3.5694,3.5786,3.5821,3.5876,3.5879,3.5919,3.5887,3.5883,3.5883,3.5881,3.5886,3.5925,3.5926,3.5927,3.5927,0,3.5275,3.5288,3.5336,3.539,3.5431,3.5474,3.5517,3.5543,3.5575,3.5614,3.5674,3.5711,3.5785,3.5843,3.5902,3.5931,3.5936,3.5937,3.595,3.5946,3.5937,3.5945,3.5826,3.5934,3.5933,3.5933,3.5933,3.5932,3.5328,3.5367,3.5414,3.5469,3.5504,3.5545,3.5586,3.5616,3.5666,3.5728,3.574,3.5804,3.5852,3.5932,3.5963,3.6014,3.6006,3.6023,3.6028,3.6033,3.6036,3.5928,3.6025,3.6025,3.6025,3.6024,3.6024,0,3.5409,3.5441,3.549,3.5552,3.5596,3.5596,3.5645,3.5682,3.5738,3.5783,3.583,3.5901,3.5959,3.5999,3.6059,3.6093,3.6097,3.6108,3.6106,3.6114,3.6039,3.6023,3.6104,3.6104,3.6104,3.6104,3.6104,3.6104,3.5456,3.5523,3.5542,3.5628,3.566,3.5722,3.5751,3.579,3.5826,3.5904,3.5953,3.5979,3.6023,3.6087,3.6141,3.6152,3.6174,3.6186,3.6197,3.6127,3.6118,3.611,3.6096,3.619,3.619,3.6267,3.6268,3.6268]},{"header":{"parameterUnit":"m.s-1","parameterCategory":1,"la1":30.2991,"la2":30.254,"lo1":-89.0895,"lo2":-89.0444,"dy":0.0017,"dx":0.0017,"nx":28,"ny":28,"refTime":"2024-12-21T03:00:00:Z","depth":0,"parameterNumber":3,"parameterNumberName":"V-component_of_WINDS"},"data":[0,0,0,0,0,0,0,0,0,0,0,0,0,0,0,0,0,0,0,0,0,0,0,0,0,0,0,0,0,0,0,0,0,0,0,0,0,0,0,0,0,0,0,0,0,0,0,0,0,0,0,0,0,0,0,0,0,0,-3.7483,-3.7483,0,-3.7511,-3.7511,-3.7511,-3.7545,-3.7546,-3.7546,-3.7547,-3.7573,-3.7573,-3.7573,0,0,0,0,0,0,0,0,0,0,0,0,0,-3.7457,-3.7458,-3.7483,-3.7483,-3.7483,-3.7511,-3.7511,-3.7511,-3.7545,-3.7546,-3.7546,-3.7547,-3.7572,-3.7573,-3.7573,0,0,0,0,0,0,0,0,0,0,0,0,0,-3.7475,-3.7458,-3.7482,-3.7503,-3.7506,-3.7511,-3.7511,-3.7512,-3.7545,-3.7546,-3.7547,-3.7547,-3.7572,-3.7573,-3.7573,-3.7559,0,0,-3.7574,-3.7574,0,0,0,0,0,0,0,0,-3.7474,-3.7476,-3.75,-3.7502,-3.7504,-3.7525,-3.7512,-3.7527,-3.7545,-3.753,-3.7547,-3.7548,-3.7556,-3.7558,-3.7561,-3.756,-3.7561,-3.7574,-3.7574,-3.7574,-3.7574,0,0,0,0,0,0,0,-3.7473,-3.7475,-3.7494,-3.75,-3.7503,-3.7511,-3.7515,-3.7515,-3.7538,-3.7531,-3.7534,-3.7537,-3.7557,-3.7561,-3.7562,-3.7561,-3.7574,-3.7574,-3.7574,-3.7574,-3.7553,-3.7552,0,0,0,0,0,0,-3.7469,-3.7474,-3.7493,-3.7494,-3.7491,-3.7511,-3.7515,-3.7518,-3.7538,-3.7542,-3.7536,-3.7538,-3.756,-3.7562,-3.7563,-3.7549,-3.7574,-3.7574,-3.7575,-3.7554,-3.7553,-3.7552,0,0,0,0,0,0,-3.7468,-3.747,-3.7492,-3.7485,-3.7488,-3.7511,-3.7514,-3.7518,-3.7521,-3.7542,-3.7546,-3.7535,-3.7561,-3.7563,-3.756,-3.755,-3.7575,-3.7575,-3.7554,-3.7553,-3.7552,-3.752,0,0,0,0,0,0,-3.7467,-3.747,-3.7464,-3.7485,-3.7489,-3.7488,-3.7513,-3.7518,-3.7522,-3.7525,-3.7542,-3.7546,-3.7561,-3.756,-3.7561,-3.7551,-3.7575,-3.7555,-3.7554,-3.7553,-3.7522,-3.7518,-3.7514,0,0,0,0,0,-3.7466,-3.7453,-3.7464,-3.7466,-3.7482,-3.7488,-3.749,-3.7509,-3.7521,-3.7516,-3.753,-3.7545,-3.7552,-3.7559,-3.756,-3.7551,-3.7556,-3.7554,-3.7553,-3.7524,-3.7519,-3.7515,0,0,0,0,0,0,-3.7428,-3.7455,-3.7468,-3.7461,-3.7472,-3.7493,-3.7487,-3.7503,-3.7509,-3.7512,-3.7535,-3.7538,-3.7534,-3.7542,-3.755,-3.754,-3.7556,-3.7555,-3.7534,-3.7529,-3.7526,-3.7523,-3.7575,0,0,0,0,0,-3.742,-3.7422,-3.7446,-3.7437,-3.7442,-3.7464,-3.7467,-3.7481,-3.7493,-3.7497,-3.7511,-3.7521,-3.7526,-3.7528,-3.7534,-3.7524,-3.7529,-3.7519,-3.7515,-3.7512,-3.751,-3.7507,-3.7503,-3.7546,-3.7546,-3.7547,0,0,-3.74,-3.7416,-3.7415,-3.743,-3.744,-3.7443,-3.7467,-3.7468,-3.747,-3.7497,-3.7496,-3.7507,-3.752,-3.7515,-3.7514,-3.7522,-3.7499,-3.751,-3.7507,-3.7507,-3.7505,-3.7501,-3.7498,-3.7545,-3.7546,-3.7546,0,0,-3.7367,-3.7379,-3.7374,-3.7384,-3.7401,-3.7416,-3.7415,-3.7435,-3.7444,-3.7444,-3.7465,-3.7468,-3.7475,-3.7485,-3.749,-3.7465,-3.748,-3.7466,-3.7445,-3.7443,-3.744,-3.7437,-3.7428,-3.7425,-3.7464,-3.7464,-3.7464,0,-3.734,-3.7345,-3.7369,-3.7369,-3.7376,-3.7403,-3.7399,-3.7408,-3.7424,-3.7428,-3.7438,-3.745,-3.7461,-3.7459,-3.7453,-3.7457,-3.7457,-3.7463,-3.7438,-3.7436,-3.7433,-3.7426,-3.7422,-3.7462,-3.7463,-3.7463,-3.7463,0,-3.7313,-3.7316,-3.731,-3.7328,-3.7334,-3.7332,-3.7355,-3.7358,-3.7373,-3.7388,-3.7389,-3.7404,-3.7413,-3.7414,-3.7428,-3.7415,-3.7421,-3.7434,-3.7451,-3.7427,-3.742,-3.7417,-3.746,-3.7461,-3.7461,-3.7462,0,0,-3.7253,-3.7287,-3.7284,-3.7293,-3.7315,-3.7318,-3.7319,-3.733,-3.7333,-3.7344,-3.7345,-3.7353,-3.7367,-3.7373,-3.7389,-3.7387,-3.7367,-3.7401,-3.7402,-3.7394,-3.7356,-3.7345,-3.7341,-3.7378,-3.7378,-3.7378,-3.7355,0,-3.7223,-3.7225,-3.7248,-3.7244,-3.7248,-3.7277,-3.7277,-3.7291,-3.7305,-3.7311,-3.7327,-3.7332,-3.735,-3.7354,-3.7354,-3.737,-3.736,-3.7372,-3.7379,-3.7379,-3.7374,-3.7338,-3.7325,-3.7303,-3.7353,-3.7352,-3.7352,0,-3.7187,-3.7199,-3.7196,-3.7221,-3.7224,-3.7224,-3.7238,-3.7243,-3.726,-3.7271,-3.728,-3.7299,-3.7301,-3.7319,-3.7323,-3.7331,-3.7336,-3.7345,-3.7344,-3.7345,-3.7363,-3.7337,-3.7296,-3.7293,-3.7348,-3.7348,-3.7348,0,-3.7144,-3.716,-3.7161,-3.7168,-3.7196,-3.7196,-3.7208,-3.7226,-3.7233,-3.7245,-3.725,-3.7262,-3.7268,-3.7277,-3.7299,-3.7309,-3.7301,-3.732,-3.731,-3.731,-3.7305,-3.7305,-3.7265,-3.731,-3.731,-3.731,-3.731,0,-3.7108,-3.7105,-3.7142,-3.7142,-3.714,-3.7168,-3.7165,-3.718,-3.7196,-3.72,-3.7226,-3.7229,-3.7258,-3.7265,-3.7282,-3.7284,-3.7286,-3.7295,-3.7299,-3.7292,-3.7291,-3.7295,-3.7297,-3.7309,-3.7309,-3.7309,-3.731,0,-3.7058,-3.7083,-3.7086,-3.7114,-3.7122,-3.7119,-3.7144,-3.7145,-3.7163,-3.7168,-3.7171,-3.7198,-3.7208,-3.7231,-3.7246,-3.7258,-3.7255,-3.7264,-3.725,-3.7252,-3.7242,-3.7242,-3.7201,-3.7198,-3.7245,-3.7245,-3.7244,0,-3.7033,-3.7031,-3.7061,-3.7067,-3.7078,-3.7086,-3.7094,-3.7122,-3.7128,-3.715,-3.7149,-3.7162,-3.7173,-3.7187,-3.7208,-3.7221,-3.7229,-3.7215,-3.7231,-3.7225,-3.7229,-3.7229,-3.7229,-3.721,-3.7209,-3.7209,-3.7208,0,-3.6985,-3.6998,-3.7009,-3.7025,-3.7034,-3.7047,-3.7062,-3.7064,-3.7096,-3.7103,-3.7114,-3.7123,-3.7141,-3.7153,-3.7169,-3.7182,-3.72,-3.7204,-3.7202,-3.7194,-3.7186,-3.7191,-3.7239,-3.7204,-3.7204,-3.7205,-3.7205,-3.7205,-3.6947,-3.6948,-3.697,-3.6981,-3.6996,-3.701,-3.7014,-3.7034,-3.7044,-3.7061,-3.7078,-3.7088,-3.7108,-3.7132,-3.7144,-3.7153,-3.7162,-3.7159,-3.7159,-3.7157,-3.7155,-3.7186,-3.7156,-3.7156,-3.7156,-3.7156,-3.7156,0,-3.69,-3.6917,-3.6928,-3.6949,-3.6959,-3.6978,-3.6996,-3.7003,-3.7012,-3.703,-3.7041,-3.7056,-3.7068,-3.7092,-3.7107,-3.711,-3.7119,-3.7113,-3.7112,-3.7115,-3.7145,-3.7145,-3.7105,-3.7105,-3.7105,-3.7105,-3.7105,-3.7105,-3.6877,-3.6881,-3.6898,-3.691,-3.6926,-3.6937,-3.6946,-3.696,-3.6975,-3.699,-3.7002,-3.7018,-3.7039,-3.7056,-3.7069,-3.7076,-3.708,-3.7071,-3.7081,-3.7108,-3.7113,-3.7117,-3.7117,-3.7072,-3.7072,-3.705,-3.705,-3.7049]}]]